When you browse on this site, cookies collect data to enhance your experience and personalize the content and advertising you see.
Visit our Privacy Policy to learn more. By continuing to use the site, you agree to this use of cookies and data.
  • En España
  • Lista de países
  • Para 7 días
  • Temperatura del agua
  • El tiempo en el mapa
  • Informadores
  • user-avatar
    Iniciar sesión

    Tiempo cada hora Northampton

    Hoy, 21 Septiembre, Sábado

    Tiempo Temperatura Precipitaciones Viento Presión Humedad
    00:00 +12°C° 0 mm 4 mps 755 mmHg 76%
    01:00 +12°C° 0 mm 4 mps 754 mmHg 77%
    02:00 +12°C° 0 mm 4 mps 754 mmHg 77%
    03:00 +12°C° 0 mm 4 mps 753 mmHg 78%
    04:00 +11°C° 0 mm 4 mps 753 mmHg 78%
    05:00 +11°C° 0 mm 4 mps 752 mmHg 77%
    06:00 +10°C° 0 mm 5 mps 752 mmHg 77%
    07:00 +13°C° 0 mm 5 mps 752 mmHg 71%
    08:00 +14°C° 0 mm 5 mps 752 mmHg 65%
    09:00 +16°C° 0 mm 6 mps 751 mmHg 59%
    10:00 +17°C° 0 mm 6 mps 751 mmHg 56%
    11:00 +20°C° 0 mm 6 mps 751 mmHg 52%
    12:00 +21°C° 0 mm 5 mps 750 mmHg 49%
    13:00 +22°C° 0 mm 5 mps 750 mmHg 49%
    14:00 +22°C° 0 mm 5 mps 749 mmHg 49%
    15:00 +23°C° 0 mm 5 mps 748 mmHg 49%
    16:00 +21°C° 0 mm 5 mps 748 mmHg 55%
    17:00 +20°C° 0 mm 5 mps 748 mmHg 61%
    18:00 +18°C° 0 mm 4 mps 747 mmHg 66%
    19:00 +18°C° 0 mm 4 mps 747 mmHg 68%
    20:00 +17°C° 0 mm 4 mps 747 mmHg 70%
    21:00 +17°C° 0 mm 4 mps 747 mmHg 72%
    22:00 +17°C° 0 mm 4 mps 746 mmHg 73%
    23:00 +17°C° 0 mm 4 mps 746 mmHg 75%

    Mañana, 22 Septiembre, Domingo

    Tiempo Temperatura Precipitaciones Viento Presión Humedad
    00:00 +17°C° 0 mm 4 mps 745 mmHg 77%
    01:00 +17°C° 0.1 mm 4 mps 745 mmHg 79%
    02:00 +17°C° 0.1 mm 4 mps 744 mmHg 81%
    03:00 +17°C° 0.1 mm 4 mps 744 mmHg 82%
    04:00 +17°C° 0.2 mm 3 mps 744 mmHg 85%
    05:00 +17°C° 0.2 mm 3 mps 743 mmHg 88%
    06:00 +16°C° 0.2 mm 3 mps 743 mmHg 90%
    07:00 +18°C° 0 mm 4 mps 743 mmHg 86%
    08:00 +19°C° 0 mm 4 mps 743 mmHg 81%
    09:00 +21°C° 0 mm 5 mps 743 mmHg 76%
    10:00 +19°C° 1 mm 5 mps 743 mmHg 80%
    11:00 +16°C° 1 mm 5 mps 743 mmHg 83%
    12:00 +14°C° 1 mm 6 mps 743 mmHg 86%
    13:00 +15°C° 0.2 mm 5 mps 743 mmHg 83%
    14:00 +16°C° 0.2 mm 5 mps 743 mmHg 80%
    15:00 +17°C° 0.2 mm 5 mps 743 mmHg 77%
    16:00 +16°C° 0 mm 5 mps 743 mmHg 78%
    17:00 +17°C° 0 mm 4 mps 743 mmHg 80%
    18:00 +15°C° 0 mm 4 mps 743 mmHg 81%
    19:00 +15°C° 0 mm 4 mps 743 mmHg 84%
    20:00 +14°C° 0 mm 4 mps 744 mmHg 87%
    21:00 +13°C° 0 mm 4 mps 744 mmHg 90%
    22:00 +13°C° 0 mm 4 mps 744 mmHg 91%
    23:00 +13°C° 0 mm 5 mps 744 mmHg 92%

    Pasado mañana, 23 Septiembre, Lunes

    Tiempo Temperatura Precipitaciones Viento Presión Humedad
    00:00 +12°C° 0 mm 5 mps 745 mmHg 94%
    01:00 +11°C° 0 mm 6 mps 745 mmHg 92%
    02:00 +11°C° 0 mm 6 mps 745 mmHg 90%
    03:00 +11°C° 0 mm 6 mps 746 mmHg 87%
    04:00 +11°C° 0 mm 6 mps 746 mmHg 88%
    05:00 +10°C° 0 mm 5 mps 746 mmHg 88%
    06:00 +10°C° 0 mm 5 mps 746 mmHg 89%
    07:00 +12°C° 0 mm 5 mps 747 mmHg 84%
    08:00 +13°C° 0 mm 4 mps 747 mmHg 80%
    09:00 +14°C° 0 mm 4 mps 747 mmHg 76%
    10:00 +15°C° 0.1 mm 5 mps 747 mmHg 72%
    11:00 +16°C° 0.1 mm 5 mps 747 mmHg 68%
    12:00 +19°C° 0.1 mm 6 mps 747 mmHg 64%
    13:00 +17°C° 0.1 mm 6 mps 747 mmHg 65%
    14:00 +17°C° 0.1 mm 6 mps 746 mmHg 67%
    15:00 +16°C° 0.1 mm 6 mps 746 mmHg 69%
    16:00 +15°C° 1.2 mm 6 mps 745 mmHg 76%
    17:00 +14°C° 1.2 mm 7 mps 745 mmHg 84%
    18:00 +14°C° 1.2 mm 7 mps 744 mmHg 91%
    19:00 +14°C° 0.6 mm 7 mps 744 mmHg 91%
    20:00 +15°C° 0.6 mm 7 mps 744 mmHg 92%
    21:00 +15°C° 0.6 mm 7 mps 744 mmHg 92%
    22:00 +15°C° 0.5 mm 6 mps 743 mmHg 92%
    23:00 +16°C° 0.5 mm 5 mps 743 mmHg 93%

    24 Septiembre, Martes

    Tiempo Temperatura Precipitaciones Viento Presión Humedad
    00:00 +17°C° 0.5 mm 4 mps 743 mmHg 93%
    01:00 +17°C° 0.2 mm 4 mps 743 mmHg 94%
    02:00 +15°C° 0.2 mm 4 mps 742 mmHg 94%
    03:00 +15°C° 0.2 mm 4 mps 742 mmHg 94%
    04:00 +15°C° 0.1 mm 4 mps 742 mmHg 94%
    05:00 +15°C° 0.1 mm 4 mps 741 mmHg 94%
    06:00 +15°C° 0.1 mm 4 mps 741 mmHg 94%
    07:00 +15°C° 3.8 mm 4 mps 741 mmHg 94%
    08:00 +15°C° 3.8 mm 4 mps 740 mmHg 94%
    09:00 +15°C° 3.8 mm 4 mps 740 mmHg 94%
    10:00 +16°C° 0.8 mm 5 mps 740 mmHg 86%
    11:00 +17°C° 0.8 mm 6 mps 740 mmHg 79%
    12:00 +18°C° 0.8 mm 7 mps 740 mmHg 71%
    13:00 +18°C° 0 mm 7 mps 740 mmHg 70%
    14:00 +18°C° 0 mm 8 mps 740 mmHg 70%
    15:00 +17°C° 0 mm 8 mps 739 mmHg 70%
    16:00 +16°C° 0.2 mm 8 mps 739 mmHg 74%
    17:00 +15°C° 0.2 mm 8 mps 739 mmHg 78%
    18:00 +13°C° 0.2 mm 8 mps 739 mmHg 82%
    19:00 +13°C° 0.1 mm 8 mps 738 mmHg 83%
    20:00 +14°C° 0.1 mm 7 mps 738 mmHg 84%
    21:00 +14°C° 0.1 mm 7 mps 738 mmHg 85%
    22:00 +13°C° 0 mm 8 mps 737 mmHg 85%
    23:00 +13°C° 0 mm 8 mps 737 mmHg 84%

    25 Septiembre, Miércoles

    Tiempo Temperatura Precipitaciones Viento Presión Humedad
    00:00 +12°C° 0 mm 9 mps 736 mmHg 83%
    01:00 +12°C° 0.1 mm 8 mps 736 mmHg 84%
    02:00 +12°C° 0.1 mm 8 mps 736 mmHg 84%
    03:00 +12°C° 0.1 mm 7 mps 736 mmHg 85%
    04:00 +12°C° 0 mm 7 mps 737 mmHg 87%
    05:00 +11°C° 0 mm 7 mps 737 mmHg 88%
    06:00 +11°C° 0 mm 6 mps 737 mmHg 89%
    07:00 +13°C° 0 mm 6 mps 738 mmHg 85%
    08:00 +14°C° 0 mm 6 mps 738 mmHg 81%
    09:00 +15°C° 0 mm 6 mps 739 mmHg 78%
    10:00 +15°C° 0.7 mm 6 mps 739 mmHg 78%
    11:00 +15°C° 0.7 mm 7 mps 740 mmHg 78%
    12:00 +16°C° 0.7 mm 7 mps 740 mmHg 78%
    13:00 +16°C° 0.3 mm 7 mps 740 mmHg 75%
    14:00 +16°C° 0.3 mm 7 mps 740 mmHg 73%
    15:00 +17°C° 0.3 mm 7 mps 740 mmHg 70%
    16:00 +15°C° 0 mm 6 mps 740 mmHg 75%
    17:00 +14°C° 0 mm 5 mps 740 mmHg 80%
    18:00 +13°C° 0 mm 4 mps 740 mmHg 85%
    19:00 +13°C° 0 mm 3 mps 740 mmHg 88%
    20:00 +12°C° 0 mm 3 mps 740 mmHg 92%
    21:00 +12°C° 0 mm 3 mps 740 mmHg 95%
    22:00 +12°C° 0 mm 3 mps 739 mmHg 95%
    23:00 +13°C° 0 mm 3 mps 739 mmHg 96%

    26 Septiembre, Jueves

    Tiempo Temperatura Precipitaciones Viento Presión Humedad
    00:00 +13°C° 0 mm 3 mps 738 mmHg 96%
    01:00 +13°C° 1.3 mm 4 mps 738 mmHg 96%
    02:00 +14°C° 1.3 mm 5 mps 738 mmHg 96%
    03:00 +15°C° 1.3 mm 6 mps 737 mmHg 96%
    04:00 +15°C° 0.5 mm 6 mps 737 mmHg 94%
    05:00 +15°C° 0.5 mm 7 mps 737 mmHg 92%
    06:00 +15°C° 0.5 mm 7 mps 737 mmHg 90%
    07:00 +16°C° 0 mm 7 mps 737 mmHg 86%
    08:00 +16°C° 0 mm 7 mps 737 mmHg 83%
    09:00 +17°C° 0 mm 8 mps 737 mmHg 79%
    10:00 +17°C° 0.1 mm 8 mps 737 mmHg 76%
    11:00 +17°C° 0.1 mm 8 mps 738 mmHg 72%
    12:00 +18°C° 0.1 mm 9 mps 738 mmHg 68%
    13:00 +17°C° 0.2 mm 9 mps 738 mmHg 67%
    14:00 +16°C° 0.2 mm 9 mps 738 mmHg 67%
    15:00 +16°C° 0.2 mm 9 mps 738 mmHg 66%
    16:00 +15°C° 0.1 mm 8 mps 738 mmHg 70%
    17:00 +14°C° 0.1 mm 7 mps 738 mmHg 74%
    18:00 +13°C° 0.1 mm 6 mps 738 mmHg 78%
    19:00 +13°C° 0.1 mm 6 mps 738 mmHg 79%
    20:00 +11°C° 0.1 mm 7 mps 739 mmHg 80%
    21:00 +11°C° 0.1 mm 7 mps 739 mmHg 81%
    22:00 +11°C° 0 mm 7 mps 739 mmHg 82%
    23:00 +11°C° 0 mm 7 mps 738 mmHg 83%
    Mostrar más